KD8TSA Weather Reports


time (UTC)temp
C
wind
direction
speed
KPH
gust
KPH
rain 1hr
cm
rain 24hr
cm
rain mn
cm
humidity
%
barometer
mb
20260903055956 26 207 0.0 0.0 0.00 0.00 0.00 84 1016.3
20260903055454 26 159 0.0 0.0 0.00 0.00 0.00 83 1016.7
20260903054949 26 166 0.0 0.0 0.00 0.00 0.00 83 1016.6
20260903054443 26 187 0.0 0.0 0.00 0.00 0.00 83 1016.5
20260903053939 26 161 0.0 0.0 0.00 0.00 0.00 83 1016.6
20260903053439 26 173 0.0 0.0 0.00 0.00 0.00 83 1016.7
20260903052936 26 194 0.0 1.6 0.00 0.00 0.00 83 1016.7
20260903052432 26 174 0.0 0.0 0.00 0.00 0.00 83 1016.6
20260903051927 26 190 0.0 0.0 0.00 0.00 0.00 83 1016.5
20260903051422 26 189 0.0 0.0 0.00 0.00 0.00 83 1016.6
20260903050918 26 173 0.0 0.0 0.00 0.00 0.00 83 1016.6
20260903050416 26 169 0.0 0.0 0.00 0.00 0.00 83 1016.4
20260903045911 26 179 0.0 0.0 0.00 0.00 0.00 83 1016.4
20260903045406 26 187 0.0 0.0 0.00 0.00 0.00 83 1016.4
20260903044858 26 183 0.0 0.0 0.00 0.00 0.00 84 1016.4
20260903044358 26 180 0.0 0.0 0.00 0.00 0.00 83 1016.4
20260903043855 26 198 0.0 0.0 0.00 0.00 0.00 83 1016.1
20260903043355 26 175 0.0 0.0 0.00 0.00 0.00 83 1016.3
20260903042853 26 190 0.0 0.0 0.00 0.00 0.00 84 1016.3
20260903042349 26 185 0.0 0.0 0.00 0.00 0.00 84 1016.4
20260903041844 26 182 0.0 0.0 0.00 0.00 0.00 83 1016.3
20260903041341 26 179 0.0 0.0 0.00 0.00 0.00 83 1016.4
20260903040836 26 190 0.0 0.0 0.00 0.00 0.00 83 1016.3
20260903040335 26 188 0.0 1.6 0.00 0.00 0.00 83 1016.4
20260903035832 26 177 0.0 0.0 0.00 0.00 0.00 83 1016.3
20260903035326 26 199 0.0 0.0 0.00 0.00 0.00 83 1016.4
20260903034822 26 187 0.0 0.0 0.00 0.00 0.00 83 1016.1
20260903034317 26 157 0.0 1.6 0.00 0.00 0.00 83 1016.4
20260903033812 26 177 0.0 0.0 0.00 0.00 0.00 82 1016.2
20260903033307 26 178 0.0 0.0 0.00 0.00 0.00 81 1016.5
20260903032802 27 209 0.0 0.0 0.00 0.00 0.00 81 1016.6
20260903032258 27 181 0.0 0.0 0.00 0.00 0.00 81 1016.4
20260903031753 27 177 0.0 0.0 0.00 0.00 0.00 80 1016.6
20260903031252 27 180 0.0 0.0 0.00 0.00 0.00 80 1016.6
20260903030748 27 177 0.0 0.0 0.00 0.00 0.00 80 1016.5
20260903030244 27 181 0.0 0.0 0.00 0.00 0.00 81 1016.6
20260903025739 27 176 0.0 0.0 0.00 0.00 0.00 81 1016.5
20260903025235 27 181 0.0 0.0 0.00 0.00 0.00 81 1016.9
20260903024730 27 191 0.0 0.0 0.00 0.00 0.00 81 1016.6
20260903024229 27 180 0.0 0.0 0.00 0.00 0.00 81 1016.9
20260903023725 27 182 0.0 0.0 0.00 0.00 0.00 81 1016.8
20260903023220 27 172 0.0 0.0 0.00 0.00 0.00 81 1016.9
20260903022720 27 186 0.0 0.0 0.00 0.00 0.00 81 1017.0
20260903022219 27 168 0.0 0.0 0.00 0.00 0.00 81 1016.8
20260903021718 27 173 0.0 0.0 0.00 0.00 0.00 81 1016.8
20260903021213 27 167 0.0 0.0 0.00 0.00 0.00 82 1016.9
20260903020708 27 177 0.0 0.0 0.00 0.00 0.00 81 1016.8
20260903020203 27 191 0.0 0.0 0.00 0.00 0.00 81 1016.8
20260903015658 27 180 0.0 0.0 0.00 0.00 0.00 81 1016.8
20260903015154 27 184 0.0 0.0 0.00 0.00 0.00 80 1016.9
20260903014654 27 179 0.0 1.6 0.00 0.00 0.00 80 1016.8
20260903014148 27 183 0.0 0.0 0.00 0.00 0.00 81 1016.7
20260903013642 27 183 0.0 0.0 0.00 0.00 0.00 81 1016.7
20260903013137 27 197 1.6 1.6 0.00 0.00 0.00 81 1016.9
20260903012636 27 182 0.0 0.0 0.00 0.00 0.00 81 1016.6
20260903012135 27 184 0.0 0.0 0.00 0.00 0.00 81 1016.8
20260903011634 27 184 0.0 0.0 0.00 0.00 0.00 81 1016.5
20260903011129 27 183 0.0 0.0 0.00 0.00 0.00 81 1016.5
20260903010625 27 185 0.0 0.0 0.00 0.00 0.00 81 1016.5
20260903010123 27 184 0.0 0.0 0.00 0.00 0.00 81 1016.4
20260903005618 27 183 0.0 0.0 0.00 0.00 0.00 81 1016.2
20260903005114 27 184 0.0 0.0 0.00 0.00 0.00 81 1016.1
20260903004614 27 185 0.0 0.0 0.00 0.00 0.00 81 1016.2
20260903004109 27 183 0.0 0.0 0.00 0.00 0.00 81 1016.0
20260903003604 27 184 0.0 0.0 0.00 0.00 0.00 82 1016.3
20260903003059 27 184 0.0 0.0 0.00 0.00 0.00 82 1016.3
20260903002554 28 184 0.0 0.0 0.00 0.00 0.00 81 1016.1
20260903002049 28 184 0.0 0.0 0.00 0.00 0.00 81 1016.1
20260903001543 28 184 0.0 0.0 0.00 0.00 0.00 80 1016.0
20260903001042 28 184 0.0 0.0 0.00 0.00 0.00 80 1016.1
20260903000539 28 184 0.0 0.0 0.00 0.00 0.00 79 1016.2
20260903000037 29 189 0.0 0.0 0.00 0.00 0.00 79 1016.2
20260902235531 29 184 0.0 0.0 0.00 0.00 0.00 78 1016.1
20260902235026 30 190 0.0 0.0 0.00 0.00 0.00 77 1016.1
20260902234526 30 190 0.0 0.0 0.00 0.00 0.00 77 1016.1
20260902234025 30 188 0.0 0.0 0.00 0.00 0.00 76 1016.2
20260902233519 31 189 0.0 0.0 0.00 0.00 0.00 75 1016.3
20260902233009 31 184 0.0 0.0 0.00 0.00 0.00 74 1016.0
20260902232508 31 182 0.0 0.0 0.00 0.00 0.00 72 1016.1
20260902232002 31 186 0.0 0.0 0.00 0.00 0.00 72 1016.2
20260902231457 31 183 0.0 1.6 0.00 0.00 0.00 72 1016.3
20260902230952 31 186 0.0 0.0 0.00 0.00 0.00 72 1016.3
20260902230446 32 187 0.0 0.0 0.00 0.00 0.00 71 1016.3
20260902225945 32 192 0.0 0.0 0.00 0.00 0.00 69 1016.5
20260902225440 33 174 0.0 0.0 0.00 0.00 0.00 67 1016.2
20260902224940 33 186 0.0 0.0 0.00 0.00 0.00 67 1016.2
20260902224439 33 188 0.0 0.0 0.00 0.00 0.00 66 1016.1
20260902223936 33 185 0.0 0.0 0.00 0.00 0.00 66 1016.3
20260902223431 33 223 0.0 0.0 0.00 0.00 0.00 65 1016.2
20260902222930 33 193 0.0 1.6 0.00 0.00 0.00 64 1016.4
20260902222428 33 194 0.0 0.0 0.00 0.00 0.00 65 1016.3
20260902221923 33 208 1.6 1.6 0.00 0.00 0.00 64 1016.3
20260902221422 33 189 0.0 0.0 0.00 0.00 0.00 65 1016.4
20260902220917 34 164 0.0 0.0 0.00 0.00 0.00 64 1016.4
20260902220412 33 191 0.0 0.0 0.00 0.00 0.00 64 1016.3
20260902215907 34 217 0.0 1.6 0.00 0.00 0.00 63 1016.3
20260902215403 34 185 0.0 0.0 0.00 0.00 0.00 63 1016.5
20260902214859 34 192 0.0 0.0 0.00 0.00 0.00 63 1016.6
20260902214357 34 187 0.0 1.6 0.00 0.00 0.00 63 1016.5
20260902213851 34 171 0.0 0.0 0.00 0.00 0.00 62 1016.5
20260902213348 35 252 0.0 1.6 0.00 0.00 0.00 62 1016.6
20260902212846 34 187 0.0 0.0 0.00 0.00 0.00 63 1016.4
20260902212343 35 206 4.8 8.0 0.00 0.00 0.00 61 1016.4
20260902211839 34 227 0.0 1.6 0.00 0.00 0.00 62 1016.3
20260902211335 34 185 0.0 0.0 0.00 0.00 0.00 62 1016.5
20260902210830 34 198 3.2 3.2 0.00 0.00 0.00 62 1016.5
20260902210329 33 23 3.2 3.2 0.00 0.00 0.00 63 1016.6
20260902205828 34 338 8.0 9.7 0.00 0.00 0.00 63 1016.6
20260902205322 35 264 3.2 4.8 0.00 0.00 0.00 62 1016.8
20260902204818 35 219 0.0 0.0 0.00 0.00 0.00 63 1016.7
20260902204312 35 181 3.2 3.2 0.00 0.00 0.00 62 1016.6
20260902203808 34 195 0.0 0.0 0.00 0.00 0.00 62 1016.6
20260902203303 34 223 0.0 0.0 0.00 0.00 0.00 63 1016.8
20260902202803 34 119 1.6 4.8 0.00 0.00 0.00 63 1016.7
20260902202259 34 200 3.2 3.2 0.00 0.00 0.00 63 1017.0
20260902201756 34 259 1.6 3.2 0.00 0.00 0.00 63 1016.8
20260902201255 33 275 6.4 9.7 0.00 0.00 0.00 62 1016.8
20260902200750 34 306 4.8 9.7 0.00 0.00 0.00 63 1016.8
20260902200245 34 254 6.4 8.0 0.00 0.00 0.00 63 1017.0
20260902195741 34 177 0.0 0.0 0.00 0.00 0.00 64 1017.0
20260902195244 34 218 0.0 0.0 0.00 0.00 0.00 64 1017.2
20260902194735 34 206 1.6 4.8 0.00 0.00 0.00 63 1017.5
20260902194230 34 184 1.6 3.2 0.00 0.00 0.00 64 1017.2
20260902193725 33 206 3.2 4.8 0.00 0.00 0.00 62 1017.5
20260902193220 35 282 4.8 8.0 0.00 0.00 0.00 62 1017.1
20260902192718 34 164 0.0 0.0 0.00 0.00 0.00 64 1017.6
20260902192212 34 229 1.6 1.6 0.00 0.00 0.00 63 1017.6
20260902191707 34 204 3.2 4.8 0.00 0.00 0.00 63 1017.6
20260902191201 33 192 0.0 1.6 0.00 0.00 0.00 65 1017.8
20260902190657 33 177 3.2 4.8 0.00 0.00 0.00 65 1017.9
20260902190152 33 192 1.6 1.6 0.00 0.00 0.00 64 1017.7
20260902185647 34 277 1.6 3.2 0.00 0.00 0.00 65 1017.8
20260902185143 33 140 0.0 0.0 0.00 0.00 0.00 64 1017.6
20260902184638 33 67 3.2 3.2 0.00 0.00 0.00 65 1017.8
20260902184133 33 187 0.0 1.6 0.00 0.00 0.00 65 1017.8
20260902183629 34 144 3.2 3.2 0.00 0.00 0.00 63 1018.0
20260902183126 34 301 4.8 8.0 0.00 0.00 0.00 64 1017.9
20260902182621 33 279 1.6 3.2 0.00 0.00 0.00 65 1018.0
20260902182118 33 207 0.0 0.0 0.00 0.00 0.00 67 1018.1
20260902181614 34 192 0.0 1.6 0.00 0.00 0.00 64 1018.2
20260902181112 33 199 0.0 0.0 0.00 0.00 0.00 66 1018.1
20260902180607 33 240 3.2 4.8 0.00 0.00 0.00 68 1018.3
20260902175603 33 128 1.6 3.2 0.00 0.00 0.00 66 1018.3
20260902175058 33 221 3.2 4.8 0.00 0.00 0.00 66 1018.1
20260902174555 33 186 1.6 3.2 0.00 0.00 0.00 66 1018.3
20260902174050 33 341 6.4 8.0 0.00 0.00 0.00 67 1018.4
20260902173549 33 191 1.6 1.6 0.00 0.00 0.00 68 1018.4
20260902173045 33 171 3.2 3.2 0.00 0.00 0.00 69 1018.3
20260902172539 33 66 3.2 3.2 0.00 0.00 0.00 70 1018.4
20260902172034 33 222 4.8 4.8 0.00 0.00 0.00 67 1018.5
20260902171530 33 183 0.0 1.6 0.00 0.00 0.00 69 1018.5
20260902171026 33 203 4.8 4.8 0.00 0.00 0.00 69 1018.7
20260902170520 33 250 3.2 4.8 0.00 0.00 0.00 67 1018.4
20260902170016 33 206 3.2 4.8 0.00 0.00 0.00 66 1018.6
20260902165515 33 187 1.6 1.6 0.00 0.00 0.00 71 1018.4
20260902165010 33 216 1.6 3.2 0.00 0.00 0.00 68 1018.7
20260902164505 32 187 1.6 3.2 0.00 0.00 0.00 67 1018.6
20260902164004 32 92 6.4 11.3 0.00 0.00 0.00 73 1018.7
20260902163500 32 181 0.0 0.0 0.00 0.00 0.00 71 1018.7
20260902162957 32 353 3.2 8.0 0.00 0.00 0.00 72 1018.9
20260902162452 32 208 1.6 3.2 0.00 0.00 0.00 71 1019.0
20260902161947 32 176 1.6 3.2 0.00 0.00 0.00 72 1018.9
20260902161442 32 147 4.8 4.8 0.00 0.00 0.00 73 1018.9
20260902160938 32 234 4.8 4.8 0.00 0.00 0.00 73 1019.0
20260902160433 32 199 1.6 1.6 0.00 0.00 0.00 72 1019.0
20260902155931 31 206 1.6 1.6 0.00 0.00 0.00 73 1019.2
20260902155426 31 272 6.4 9.7 0.00 0.00 0.00 73 1019.0
20260902154920 32 282 3.2 4.8 0.00 0.00 0.00 72 1019.0
20260902154415 32 184 1.6 3.2 0.00 0.00 0.00 74 1019.0
20260902153910 31 183 4.8 8.0 0.00 0.00 0.00 73 1019.1
20260902153408 31 267 1.6 3.2 0.00 0.00 0.00 74 1019.0
20260902152904 31 90 4.8 4.8 0.00 0.00 0.00 73 1019.0
20260902152400 31 164 0.0 0.0 0.00 0.00 0.00 77 1019.1
20260902151856 31 230 3.2 4.8 0.00 0.00 0.00 74 1019.3
20260902151351 31 164 1.6 3.2 0.00 0.00 0.00 75 1019.2
20260902150850 31 300 4.8 8.0 0.00 0.00 0.00 75 1019.1
20260902150347 31 273 3.2 4.8 0.00 0.00 0.00 75 1019.2
20260902145846 31 179 0.0 0.0 0.00 0.00 0.00 75 1019.2
20260902145341 30 0 8.0 9.7 0.00 0.00 0.00 75 1019.1
20260902144836 30 234 4.8 4.8 0.00 0.00 0.00 75 1019.2
20260902144332 30 203 1.6 4.8 0.00 0.00 0.00 76 1019.2
20260902143828 30 191 1.6 1.6 0.00 0.00 0.00 76 1019.2
20260902143327 30 279 9.7 11.3 0.00 0.00 0.00 75 1019.0
20260902142823 30 247 3.2 8.0 0.00 0.00 0.00 77 1019.0
20260902142319 30 202 3.2 3.2 0.00 0.00 0.00 77 1019.1
20260902141814 30 187 0.0 1.6 0.00 0.00 0.00 78 1019.0
20260902141310 30 197 0.0 0.0 0.00 0.00 0.00 78 1019.1
20260902140809 29 186 0.0 0.0 0.00 0.00 0.00 79 1019.1
20260902140305 29 248 3.2 3.2 0.00 0.00 0.00 78 1019.0
20260902135804 28 239 3.2 4.8 0.00 0.00 0.00 79 1019.0
20260902135300 28 188 3.2 3.2 0.00 0.00 0.00 79 1019.0
20260902134759 28 226 0.0 0.0 0.00 0.00 0.00 80 1019.0
20260902134255 28 309 4.8 4.8 0.00 0.00 0.00 79 1018.9
20260902133750 28 213 1.6 1.6 0.00 0.00 0.00 80 1019.0
20260902133249 28 217 1.6 3.2 0.00 0.00 0.00 80 1018.8
20260902132744 28 177 0.0 0.0 0.00 0.00 0.00 81 1018.7
20260902132240 28 91 4.8 4.8 0.00 0.00 0.00 80 1019.0
20260902131736 28 250 1.6 1.6 0.00 0.00 0.00 79 1019.2
20260902131232 28 200 0.0 1.6 0.00 0.00 0.00 80 1018.8
20260902130732 27 207 0.0 1.6 0.00 0.00 0.00 81 1018.9
20260902130227 27 174 3.2 3.2 0.00 0.00 0.00 81 1018.6
20260902125723 27 177 0.0 0.0 0.00 0.00 0.00 82 1018.9
20260902125219 27 230 1.6 3.2 0.00 0.00 0.00 82 1018.9
20260902124715 27 176 0.0 0.0 0.00 0.00 0.00 82 1018.8
20260902124210 27 182 0.0 0.0 0.00 0.00 0.00 81 1018.7
20260902123705 26 166 1.6 1.6 0.00 0.00 0.00 82 1018.7
20260902123201 26 235 1.6 3.2 0.00 0.00 0.00 81 1018.6
20260902122659 26 171 0.0 0.0 0.00 0.00 0.00 82 1018.5
20260902122155 26 162 0.0 0.0 0.00 0.00 0.00 82 1018.4
20260902121650 26 177 0.0 0.0 0.00 0.00 0.00 82 1018.7
20260902121144 26 192 0.0 0.0 0.00 0.00 0.00 83 1018.8
20260902120641 25 185 0.0 0.0 0.00 0.00 0.00 83 1018.5
20260902120137 25 179 0.0 0.0 0.00 0.00 0.00 84 1018.6
20260902115631 25 236 0.0 0.0 0.00 0.00 0.00 85 1018.4
20260902115127 25 190 0.0 1.6 0.00 0.00 0.00 85 1018.2
20260902114623 25 176 0.0 0.0 0.00 0.00 0.00 86 1018.3
20260902114124 24 171 0.0 0.0 0.00 0.00 0.00 87 1018.4
20260902113619 23 171 0.0 0.0 0.00 0.00 0.00 88 1018.4
20260902113114 23 168 0.0 1.6 0.00 0.00 0.00 90 1018.2
20260902112609 23 187 0.0 1.6 0.00 0.00 0.00 91 1018.2
20260902112106 22 191 0.0 0.0 0.00 0.00 0.00 92 1018.2
20260902111601 22 212 0.0 0.0 0.00 0.00 0.00 93 1018.2
20260902111057 22 186 0.0 0.0 0.00 0.00 0.00 94 1018.2
20260902110553 22 182 0.0 0.0 0.00 0.00 0.00 94 1018.0
20260902110048 22 188 0.0 0.0 0.00 0.00 0.00 95 1018.3
20260902105543 22 180 0.0 0.0 0.00 0.00 0.00 95 1018.4
20260902105042 22 183 0.0 0.0 0.00 0.00 0.00 95 1018.5
20260902104538 22 182 0.0 0.0 0.00 0.00 0.00 95 1018.0
20260902104033 22 180 0.0 0.0 0.00 0.00 0.00 95 1018.2
20260902103529 22 173 0.0 0.0 0.00 0.00 0.00 95 1018.2
20260902103024 22 181 0.0 0.0 0.00 0.00 0.00 94 1018.3
20260902102521 22 184 0.0 0.0 0.00 0.00 0.00 94 1018.1
20260902102017 22 181 0.0 0.0 0.00 0.00 0.00 94 1018.3
20260902101512 22 182 0.0 0.0 0.00 0.00 0.00 94 1018.2
20260902101011 22 191 0.0 0.0 0.00 0.00 0.00 94 1018.2
20260902100506 22 188 0.0 0.0 0.00 0.00 0.00 94 1018.2
20260902100005 22 192 0.0 0.0 0.00 0.00 0.00 93 1018.2
20260902095500 22 179 0.0 0.0 0.00 0.00 0.00 93 1018.3
20260902094959 22 172 0.0 0.0 0.00 0.00 0.00 93 1018.0
20260902094455 22 187 0.0 0.0 0.00 0.00 0.00 93 1018.4
20260902093955 22 189 0.0 0.0 0.00 0.00 0.00 93 1018.3
20260902093450 22 197 0.0 0.0 0.00 0.00 0.00 93 1018.2
20260902092949 22 188 0.0 0.0 0.00 0.00 0.00 93 1018.2
20260902092445 22 189 0.0 0.0 0.00 0.00 0.00 93 1018.1
20260902091945 22 187 0.0 0.0 0.00 0.00 0.00 93 1017.9
20260902091440 22 169 0.0 0.0 0.00 0.00 0.00 93 1018.1
20260902090931 22 166 0.0 1.6 0.00 0.00 0.00 92 1018.3
20260902090426 22 181 0.0 1.6 0.00 0.00 0.00 92 1018.0
20260902085924 22 180 0.0 0.0 0.00 0.00 0.00 92 1018.2
20260902085420 22 182 0.0 0.0 0.00 0.00 0.00 91 1018.0
20260902084915 23 184 0.0 0.0 0.00 0.00 0.00 91 1018.0
20260902084411 23 170 0.0 0.0 0.00 0.00 0.00 91 1018.0
20260902083906 23 169 0.0 0.0 0.00 0.00 0.00 91 1017.9
20260902083401 23 179 0.0 0.0 0.00 0.00 0.00 90 1017.9
20260902082856 23 178 0.0 0.0 0.00 0.00 0.00 90 1017.7
20260902082352 23 187 0.0 0.0 0.00 0.00 0.00 90 1017.8
20260902081848 23 181 0.0 0.0 0.00 0.00 0.00 89 1017.7
20260902081344 23 180 0.0 0.0 0.00 0.00 0.00 89 1017.7
20260902080839 23 193 0.0 0.0 0.00 0.00 0.00 89 1017.7
20260902080335 23 162 0.0 0.0 0.00 0.00 0.00 88 1017.5
20260902075834 23 168 0.0 0.0 0.00 0.00 0.00 88 1017.2
20260902075331 23 176 0.0 0.0 0.00 0.00 0.00 89 1017.6
20260902074826 23 141 0.0 0.0 0.00 0.00 0.00 89 1017.2
20260902074321 23 174 0.0 0.0 0.00 0.00 0.00 89 1017.2
20260902073816 23 166 0.0 0.0 0.00 0.00 0.00 89 1017.5
20260902073312 23 188 0.0 0.0 0.00 0.00 0.00 89 1017.3
20260902072808 23 191 0.0 0.0 0.00 0.00 0.00 89 1017.5
20260902072308 23 215 0.0 0.0 0.00 0.00 0.00 88 1017.3
20260902071800 23 212 0.0 0.0 0.00 0.00 0.00 88 1017.7
20260902071255 24 181 0.0 0.0 0.00 0.00 0.00 87 1017.3
20260902070751 24 178 0.0 0.0 0.00 0.00 0.00 87 1017.2
20260902070250 25 179 0.0 0.0 0.00 0.00 0.00 86 1017.5
20260902065749 25 185 0.0 0.0 0.00 0.00 0.00 86 1017.2
20260902065244 25 157 0.0 0.0 0.00 0.00 0.00 85 1017.2
20260902064740 25 166 0.0 0.0 0.00 0.00 0.00 85 1017.0
20260902064236 25 184 0.0 0.0 0.00 0.00 0.00 84 1017.1
20260902063732 25 178 0.0 0.0 0.00 0.00 0.00 84 1017.1
20260902063231 25 159 3.2 8.0 0.00 0.00 0.00 84 1017.1
20260902062725 25 183 0.0 0.0 0.00 0.00 0.00 84 1017.1
20260902062221 25 177 0.0 0.0 0.00 0.00 0.00 84 1017.1
20260902061719 25 181 0.0 0.0 0.00 0.00 0.00 84 1016.9
20260902061215 25 178 0.0 0.0 0.00 0.00 0.00 84 1017.1
20260902060712 25 181 0.0 0.0 0.00 0.00 0.00 84 1017.3